Flag Weather past 2 weeks in Ebebiyín, Equatorial Guinea

Now
84 °F

Partly sunny.


Feels Like: 87 °F
Forecast: 69 / 86 °F
Wind: 3 mph from North

Location: Yaounde Airport

Current Time: Nov 27, 2014 at 2:48:46 PM

Latest Report: Nov 27, 2014 at 2:00 PM


Visibility: N/A

Pressure: 29.92 "Hg

Humidity: 58%

Dew point: 68 °F

Location of EbebiyínLocation

Historic Weather in Ebebiyín — Graph

°F

Ebebiyín temperature yesterday

Maximum temperature yesterday: 86 °F (at 3:00 PM)
Minimum temperature yesterday: 70 °F (at 1:00 AM)
Average temperature yesterday: 75 °F

Past Weeks' High & Low Weather Summary

 TemperatureHumidityPressure
High88 °F (Nov 15, 2:00 PM)100% (Nov 15, 3:00 AM)30.07 "Hg (Nov 15, 3:00 AM)
Low66 °F (Nov 15, 6:00 AM)46% (Nov 23, 4:00 PM)29.83 "Hg (Nov 16, 3:00 PM)
Average74 °F85%29.97 "Hg
* Reported Nov 12 1:00 PM — Nov 27 1:00 PM, Ebebiyín, Weather by CustomWeather, © 2014

Note: Actual official high and low records may vary slightly from our data, if they occured in-between our weather recording intervals... More about our weather records

Advertising

Ebebiyín weather history for previous 24 hours

 ConditionsComfort  
Time TempWeatherWind HumidityBarometerVisibility
1:00 PM
Nov 27
84 °FPartly sunny.1 mph58%29.95 "HgN/A
12:00 PM84 °FPartly sunny.3 mph62%29.98 "HgN/A
11:00 AM81 °FPartly sunny.2 mph70%30.01 "HgN/A
10:00 AM79 °FPartly sunny.2 mph74%30.01 "HgN/A
9:00 AM73 °FPartly sunny.3 mph89%30.04 "HgN/A
8:00 AM72 °FFog.2 mph94%30.04 "Hg2 mi
7:00 AM70 °FFog.No wind94%30.01 "Hg2 mi
6:00 AM68 °FFog.No wind94%29.98 "Hg2 mi
5:00 AM70 °FPassing clouds.1 mph94%29.98 "Hg4 mi
4:00 AM70 °FPassing clouds.2 mph94%29.95 "Hg5 mi
3:00 AM72 °FPassing clouds.2 mph94%29.95 "Hg5 mi
2:00 AM72 °FPassing clouds.3 mph88%29.95 "HgN/A
1:00 AM72 °FPassing clouds.3 mph94%29.98 "HgN/A
12:00 AM70 °FPassing clouds.2 mph94%29.98 "HgN/A
11:00 PM
Nov 26
72 °FThunderstorms. Overcast.3 mph88%29.98 "HgN/A
10:00 PM72 °FThunderstorms. Passing clouds.2 mph88%29.98 "HgN/A
9:00 PM70 °FThunderstorms. Passing clouds.No wind94%29.98 "HgN/A
8:00 PM73 °FThunderstorms. Passing clouds.No wind83%29.98 "HgN/A
7:00 PM75 °FThunderstorms. Passing clouds.2 mph83%29.92 "HgN/A
6:00 PM79 °FPassing clouds.3 mph70%29.89 "HgN/A
5:00 PM84 °FPassing clouds.3 mph58%29.89 "HgN/A
4:00 PM84 °FPassing clouds.3 mph48%29.89 "HgN/A
3:00 PM86 °FPassing clouds.3 mph49%29.89 "HgN/A
2:00 PM84 °FPartly sunny.3 mph58%29.92 "HgN/A
Weather by CustomWeather, © 2014

See weather overviewHow to use our weather pages